GFSGL_sfc_dewp_159.txt.gz
Dewpoint
24 27 30 30 32 30 29 31 33 34 35 36 39 42 47 52 59 58 58 58 57 57 57 57 56 56 55 56 55 54 53 52 50 51 52 52 52 52 51 50 51 51 50
21 25 27 27 29 26 25 27 31 30 31 33 36 38 40 44 49 54 58 57 57 57 57 57 56 56 55 55 55 54 54 54 52 51 53 52 51 51 52 50 49 49 50
20 23 22 25 24 22 23 25 27 28 28 31 32 35 37 39 41 46 50 54 57 57 57 57 56 56 56 56 55 55 55 54 54 53 52 53 53 49 49 48 48 48 46
19 20 21 25 20 19 22 23 26 26 26 28 30 31 35 36 37 42 43 44 47 52 57 57 56 56 56 56 56 55 55 54 54 53 53 53 52 44 48 48 38 38 43
16 17 18 19 17 18 20 22 23 23 24 26 28 30 32 34 35 38 38 39 40 43 47 54 57 54 49 53 56 56 55 54 53 52 52 52 42 36 45 46 48 46 43
14 15 14 15 16 17 19 20 20 21 22 23 26 28 30 31 34 35 37 37 37 38 40 45 50 48 49 46 47 49 54 55 53 53 52 50 50 48 48 48 47 37 37
13 12 13 14 14 15 16 16 17 18 20 21 23 26 28 30 33 34 34 35 35 37 39 41 43 46 47 54 51 46 47 48 51 55 53 52 51 50 49 45 46 45 46
11 11 12 13 13 14 15 15 16 18 19 20 22 24 25 28 31 34 34 34 34 35 37 39 41 42 46 47 49 52 53 51 51 51 53 54 54 52 49 47 46 46 36
10 10 11 11 12 12 13 15 16 18 19 20 22 23 24 26 30 33 33 33 32 33 34 36 38 40 40 41 44 46 49 50 50 47 49 49 50 49 49 48 40 39 37
9 9 9 11 11 12 13 15 17 18 18 19 20 22 24 25 27 29 30 29 31 30 31 33 34 38 39 41 42 43 44 46 48 40 44 47 47 49 44 48 46 42 41
8 8 8 9 11 13 14 16 17 17 17 19 18 20 21 22 23 27 26 30 31 31 31 31 32 36 37 39 40 40 40 43 45 45 45 47 46 46 47 46 47 45 42
6 6 8 10 11 12 15 15 16 16 17 17 17 17 18 20 21 21 23 24 25 25 27 31 33 34 35 36 37 38 39 40 41 43 44 46 46 44 44 44 45 44 47
3 5 8 10 12 12 13 14 13 15 15 15 15 15 15 17 17 20 21 23 23 22 23 26 30 33 36 37 37 37 37 39 40 40 42 43 45 44 41 37 35 35 34
1 4 6 8 9 10 11 11 12 13 13 15 15 15 14 14 15 19 20 21 21 22 23 24 26 32 35 36 35 37 38 39 40 41 43 43 41 36 38 37 36 36 35
0 0 1 4 6 6 6 8 9 11 14 15 16 16 15 12 17 20 19 19 19 20 19 20 25 30 34 35 35 36 37 38 38 39 40 40 38 36 36 36 36 35 36
-4 -3 -1 2 2 2 3 3 6 9 11 12 12 12 15 15 19 20 20 19 18 19 12 11 11 13 15 17 21 34 36 36 36 37 38 38 37 35 35 34 36 35 36
-7 -5 -2 -1 -1 -1 0 0 -1 1 6 7 8 10 10 13 14 15 17 17 13 13 7 7 8 9 10 12 14 16 20 35 36 36 36 36 36 35 35 34 34 34 35
-12 -7 -4 -3 -3 -3 -2 -1 -2 -2 -4 -3 2 5 6 11 10 10 12 8 1 3 3 4 5 6 7 8 9 11 14 17 29 34 35 35 35 35 34 34 33 33 34
-11 -8 -7 -7 -6 -5 -4 -4 -5 -5 -6 -6 -5 -3 -1 8 6 6 6 -1 -4 -3 -1 -0 1 4 5 6 7 9 11 12 16 20 33 34 34 34 33 34 34 33 33
-16 -11 -10 -11 -10 -9 -8 -9 -9 -9 -9 -9 -9 -9 -7 -2 -8 -8 -5 -5 -6 -7 -6 -5 -2 -0 2 3 4 6 7 10 12 13 14 26 33 33 33 33 33 32 32
-20 -18 -14 -15 -16 -13 -12 -13 -12 -12 -12 -12 -12 -9 5 -7 -11 -11 -10 -9 -9 -10 -9 -8 -7 -6 -1 -2 -1 2 3 6 8 11 12 15 19 32 32 32 32 32 33
-26 -24 -22 -23 -18 -17 -16 -15 -15 -15 -15 -15 -15 -13 -0 -13 -13 -13 -13 -12 -11 -10 -11 -11 -9 -9 -6 -6 -5 -3 -2 -1 4 7 11 11 15 22 32 32 32 32 32
-27 -27 -24 -24 -24 -21 -19 -20 -20 -18 -18 -18 -17 -17 -16 -16 -15 -15 -15 -14 -13 -13 -13 -13 -13 -12 -10 -9 -9 -5 -5 -4 0 3 11 10 12 18 24 31 32 31 29
-31 -30 -27 -25 -26 -24 -24 -23 -21 -20 -20 -20 -20 -19 -19 -18 -18 -17 -17 -16 -15 -15 -16 -16 -15 -14 -14 -13 -12 -8 -8 -4 1 4 11 10 11 14 19 24 29 30 28
-35 -33 -32 -28 -29 -26 -25 -24 -23 -24 -23 -22 -22 -21 -21 -20 -20 -20 -19 -18 -18 -17 -19 -18 -17 -17 -17 -17 -15 -12 -9 -4 -0 7 10 9 9 11 14 19 23 23 22
-34 -33 -30 -29 -29 -28 -29 -27 -25 -24 -24 -23 -22 -22 -22 -22 -22 -21 -21 -21 -20 -20 -21 -19 -19 -19 -19 -17 -15 -9 -5 1 5 7 9 8 7 8 11 13 18 20 20

GFSGL_sfc_dewp_162.txt.gz
Dewpoint
22 25 25 27 25 23 24 25 27 29 28 29 30 32 34 35 38 41 44 48 52 57 57 57 57 57 57 56 56 56 55 54 52 53 53 54 53 53 54 54 54 53 53
20 22 21 24 20 20 21 23 25 25 26 27 28 29 31 33 35 37 39 43 45 48 50 56 57 56 56 56 56 56 55 55 54 52 53 53 53 54 53 53 53 52 53
18 19 20 20 18 18 20 21 22 23 24 25 26 27 29 31 32 35 37 37 38 39 40 43 45 51 56 56 56 56 56 55 55 54 53 54 54 55 54 53 53 52 51
16 17 18 18 17 18 19 20 21 21 22 23 24 25 28 29 30 34 34 35 35 36 38 40 40 42 45 51 55 55 56 55 55 54 53 53 53 53 53 51 48 46 49
15 15 15 17 16 17 19 19 20 21 20 22 23 24 26 27 28 32 32 32 33 33 36 36 39 39 37 40 44 48 53 55 54 53 52 52 51 46 46 50 49 50 47
13 14 15 15 15 17 17 18 18 19 19 21 22 23 24 24 30 32 32 31 31 32 33 34 36 36 40 40 41 42 45 48 51 53 52 51 50 51 49 49 49 48 46
13 13 14 14 14 16 16 16 17 18 19 20 21 22 23 24 28 29 29 28 29 31 32 32 32 33 35 38 39 39 40 41 44 48 49 51 50 51 51 48 48 49 48
12 12 13 14 14 15 16 16 16 18 19 19 20 21 22 21 26 27 28 27 27 28 30 31 32 32 32 34 36 38 39 41 42 43 47 50 52 51 52 51 49 47 48
11 11 11 13 13 14 15 15 17 18 18 18 19 19 20 20 24 25 24 23 23 24 23 26 28 30 32 34 36 35 35 35 37 39 41 43 45 47 49 50 44 41 41
9 10 10 12 13 14 14 15 17 17 16 17 17 19 20 19 21 23 22 22 21 21 24 24 25 26 30 31 32 33 32 32 33 35 36 37 39 43 45 47 49 43 44
7 8 9 10 12 13 14 15 16 16 16 17 16 18 18 18 18 21 23 20 21 22 20 21 21 24 25 26 28 27 30 33 35 35 36 37 38 41 46 48 47 48 45
4 5 7 10 11 11 14 14 15 15 16 16 16 16 16 15 18 19 22 22 22 21 20 18 19 23 24 27 29 29 30 32 34 35 34 35 37 39 43 46 45 47 48
3 5 7 8 10 10 10 11 11 12 13 13 13 14 14 14 15 17 20 20 20 19 18 20 20 20 20 21 23 25 28 33 34 34 34 35 37 39 41 43 42 43 43
2 3 3 5 6 7 6 6 8 9 9 10 11 12 12 12 11 14 15 18 18 17 18 16 16 16 16 16 15 17 18 20 21 33 35 37 38 40 41 43 41 39 39
1 0 1 2 4 3 3 5 4 6 8 10 12 11 10 11 10 14 14 14 14 14 14 13 12 11 10 10 11 12 13 16 16 18 18 32 36 37 38 40 39 38 37
-2 -3 -2 -1 -0 -1 -1 -0 3 5 8 9 9 9 10 10 13 13 13 13 12 11 7 7 6 6 6 7 7 8 9 11 13 15 17 18 31 35 36 36 36 36 35
-5 -3 -3 -3 -3 -3 -2 -2 -1 -1 3 4 6 7 8 8 11 11 11 11 7 6 -2 0 1 2 2 4 5 5 6 8 11 13 14 15 16 28 34 34 34 35 34
-7 -7 -4 -4 -4 -4 -4 -3 -3 -4 -5 -4 -1 3 3 6 9 8 8 4 -2 -1 -4 -3 -4 -2 -2 -0 2 1 2 4 6 9 11 13 14 16 20 32 33 33 33
-8 -7 -7 -7 -7 -7 -6 -6 -6 -7 -7 -7 -6 -5 -2 4 6 3 3 -5 -6 -6 -6 -6 -6 -5 -4 -4 -2 -3 -2 1 3 4 7 8 12 13 14 19 31 32 33
-9 -10 -11 -9 -9 -9 -9 -9 -9 -9 -10 -9 -9 -9 -8 -0 -6 -9 -8 -8 -8 -8 -7 -8 -8 -8 -7 -7 -5 -5 -6 -4 -1 0 3 4 8 12 12 16 20 31 32
-9 -11 -14 -12 -11 -11 -11 -11 -11 -11 -11 -11 -11 -9 3 -4 -10 -11 -11 -9 -9 -9 -9 -9 -10 -10 -9 -9 -8 -8 -8 -7 -5 -3 -2 2 5 9 11 14 18 24 32
-10 -12 -13 -13 -13 -13 -13 -13 -12 -13 -13 -13 -13 -11 -1 -12 -12 -12 -12 -12 -10 -10 -9 -10 -11 -11 -11 -11 -10 -11 -9 -9 -7 -7 -5 -1 4 8 10 11 14 21 27
-9 -12 -13 -14 -14 -15 -14 -13 -14 -14 -14 -14 -14 -14 -14 -13 -14 -14 -13 -12 -12 -12 -11 -11 -13 -14 -13 -12 -11 -11 -11 -10 -7 -6 -5 -2 6 7 8 9 12 15 21
-11 -12 -14 -15 -15 -16 -15 -15 -15 -16 -16 -15 -14 -14 -15 -15 -14 -14 -14 -13 -13 -13 -13 -14 -14 -16 -15 -15 -13 -12 -11 -10 -7 -6 -2 3 6 6 7 7 9 12 16
-12 -13 -15 -16 -16 -17 -17 -16 -16 -16 -16 -16 -15 -15 -15 -15 -16 -15 -15 -15 -16 -16 -16 -16 -16 -16 -16 -17 -17 -16 -13 -10 -7 -4 4 5 6 6 6 6 7 9 12
-13 -14 -16 -17 -17 -17 -17 -17 -17 -17 -17 -16 -16 -16 -16 -16 -17 -16 -16 -17 -17 -17 -18 -18 -17 -18 -18 -17 -16 -11 -10 -3 -1 2 3 7 6 5 5 6 6 7 10

GFSGL_sfc_dewp_165.txt.gz
Dewpoint
22 24 23 24 21 22 23 23 25 26 26 27 27 29 30 31 33 35 38 41 38 40 42 42 43 45 46 51 56 56 55 55 53 53 54 54 54 55 55 53 53 54 55
20 21 21 20 19 20 20 21 23 23 24 25 25 27 28 29 31 34 35 34 35 36 37 38 38 39 41 43 45 46 47 53 54 52 52 54 54 55 55 55 54 54 55
18 18 18 18 18 18 19 20 21 22 22 23 24 25 26 28 29 32 31 32 32 33 34 35 36 37 39 41 40 41 42 43 46 49 51 53 54 55 54 55 54 54 54
16 16 17 18 17 17 19 19 20 20 20 22 23 23 25 25 27 30 30 30 31 31 34 35 35 36 36 36 37 38 40 42 43 44 45 48 52 53 53 52 52 52 52
14 15 15 17 16 18 19 19 19 20 20 21 22 22 23 23 25 29 29 28 28 29 31 30 33 33 33 35 33 35 37 37 37 38 39 43 45 46 48 50 49 50 52
14 15 15 16 16 18 18 18 19 19 20 21 21 21 22 22 27 28 27 26 27 27 28 28 30 31 32 33 34 34 34 32 33 34 36 37 38 42 45 46 48 48 47
14 14 15 15 15 17 17 17 18 18 19 19 19 20 20 21 26 26 26 23 22 24 24 24 23 23 28 28 30 31 32 33 33 32 33 34 36 39 42 42 44 46 47
13 13 14 15 15 16 17 17 17 18 18 18 18 19 19 19 24 24 24 21 21 21 22 23 23 23 25 25 25 25 26 27 30 31 33 33 34 36 38 39 40 40 43
12 12 12 14 14 15 16 16 17 18 17 17 18 18 19 19 22 23 22 21 20 21 21 22 22 22 23 25 23 23 22 24 26 30 32 33 34 35 35 35 34 35 37
10 10 11 12 13 14 14 16 17 17 16 17 17 19 21 18 20 21 20 20 19 19 20 20 21 20 23 24 22 22 22 22 24 26 28 29 31 33 33 33 34 34 36
7 7 8 10 11 12 13 14 15 14 15 17 15 17 18 18 16 19 19 16 16 17 17 17 17 21 22 23 23 20 21 21 22 22 25 29 32 32 33 34 35 37 36
5 5 7 10 10 9 13 12 12 12 13 14 14 14 15 13 14 16 16 18 17 16 15 14 16 19 20 21 19 20 20 18 18 17 17 19 21 25 31 35 35 37 39
4 6 8 8 10 10 10 10 9 11 10 10 10 12 11 11 12 13 15 16 15 14 12 13 16 15 16 15 16 17 15 13 13 12 13 14 15 19 21 26 37 38 38
4 4 5 6 6 7 7 5 8 8 7 8 9 10 10 9 9 10 13 13 14 13 12 10 9 10 10 10 9 11 10 10 9 11 10 12 14 16 18 20 24 36 37
2 2 3 3 5 4 3 4 4 5 7 8 10 9 8 7 9 11 12 11 11 11 8 5 3 3 2 2 1 4 6 6 5 7 7 9 11 12 14 16 18 23 33
-0 -1 -1 -0 0 -1 -1 0 2 4 6 7 8 8 9 9 10 12 12 12 12 10 3 -1 -2 -2 -2 -2 -2 -3 0 -0 0 2 5 5 7 8 10 13 15 17 21
-4 -2 -2 -2 -3 -2 -2 -2 -1 2 4 4 5 7 8 8 9 11 11 10 8 5 -3 -3 -5 -5 -5 -5 -4 -5 -4 -3 -2 -2 0 2 4 6 6 9 12 14 16
-5 -5 -4 -3 -3 -3 -4 -3 -2 -2 -2 -2 0 3 5 6 7 10 8 5 -5 -4 -5 -7 -7 -8 -8 -8 -7 -7 -7 -6 -6 -6 -4 -2 1 2 3 5 9 10 12
-6 -6 -6 -6 -5 -6 -6 -5 -5 -5 -4 -4 -4 -2 0 2 6 6 4 -6 -8 -8 -8 -9 -9 -9 -9 -10 -10 -9 -9 -9 -9 -7 -6 -5 -3 -1 0 4 7 9 11
-6 -9 -10 -8 -7 -7 -7 -7 -8 -7 -7 -7 -7 -6 -5 -5 -3 -7 -7 -8 -9 -9 -9 -10 -10 -10 -11 -12 -12 -12 -11 -11 -11 -9 -8 -6 -5 -4 -2 3 6 7 8
-6 -7 -11 -10 -8 -8 -8 -9 -8 -8 -8 -9 -8 -6 2 -1 -8 -9 -10 -10 -10 -11 -11 -11 -12 -12 -12 -13 -14 -13 -13 -13 -12 -11 -9 -8 -7 -6 -3 5 6 7 8
-7 -7 -8 -9 -10 -10 -9 -9 -11 -10 -10 -10 -10 -8 1 -9 -10 -11 -11 -11 -11 -11 -11 -12 -13 -13 -13 -14 -15 -15 -15 -15 -13 -12 -11 -10 -9 -6 -2 4 4 5 6
-7 -8 -9 -9 -10 -12 -11 -11 -10 -10 -11 -11 -11 -11 -11 -11 -11 -12 -12 -12 -12 -13 -12 -13 -14 -15 -15 -15 -15 -15 -15 -15 -14 -13 -12 -11 -10 -6 1 3 3 4 5
-9 -9 -10 -10 -11 -11 -12 -12 -11 -13 -13 -12 -12 -12 -12 -12 -12 -13 -13 -13 -13 -14 -14 -15 -16 -17 -17 -17 -17 -16 -15 -15 -14 -12 -11 -10 -7 0 2 2 2 3 4
-11 -10 -11 -11 -12 -12 -13 -13 -13 -12 -12 -12 -12 -12 -13 -13 -13 -14 -14 -14 -15 -16 -17 -17 -17 -17 -19 -19 -19 -19 -18 -15 -14 -10 -7 -2 -1 -0 2 3 2 3 3
-11 -11 -11 -11 -13 -13 -13 -13 -13 -13 -13 -13 -13 -13 -13 -14 -14 -14 -15 -15 -16 -17 -18 -18 -18 -19 -19 -18 -19 -15 -12 -5 -5 -2 -0 -0 -0 2 3 2 2 2 2

GFSGL_sfc_dewp_168.txt.gz
Dewpoint
24 24 24 23 22 23 23 23 24 25 25 26 27 28 29 30 32 34 34 34 34 35 36 36 36 37 38 41 41 40 40 42 41 42 44 47 52 52 55 56 54 55 54
21 23 21 20 20 21 21 22 23 23 24 24 26 27 28 29 31 31 31 31 32 32 33 34 34 35 36 36 36 37 38 38 39 38 40 43 45 47 50 54 54 54 54
20 19 20 19 19 19 20 21 21 22 22 23 24 25 26 28 28 29 29 29 29 30 31 32 32 33 32 32 34 32 33 33 34 35 34 36 38 41 44 47 52 54 54
18 18 20 20 18 19 20 21 22 22 22 23 24 24 26 26 27 27 27 26 27 28 31 30 29 29 30 30 29 31 31 32 31 30 31 32 34 36 39 40 40 44 47
16 17 17 19 19 20 20 21 21 22 22 23 24 23 24 24 25 26 25 25 25 25 26 25 26 27 29 28 27 28 28 28 29 30 30 30 30 30 32 34 36 37 40
16 17 18 18 19 20 20 20 20 21 21 22 22 22 23 21 26 26 25 23 23 22 22 23 23 25 24 26 26 26 26 25 25 26 26 27 28 30 30 30 31 31 31
17 17 17 17 18 19 19 19 19 19 20 20 20 21 21 22 25 25 24 21 21 21 21 21 21 20 24 23 24 25 24 25 25 24 24 25 25 26 28 28 29 30 29
16 15 16 17 17 18 18 18 18 19 19 19 19 20 21 19 23 23 22 20 19 20 20 20 20 20 21 22 20 20 21 22 22 22 24 23 23 25 27 27 29 30 31
14 14 14 16 15 16 17 17 18 19 18 18 19 20 20 20 21 21 19 17 16 16 16 18 19 17 19 21 18 19 19 19 20 22 23 23 25 25 26 29 29 29 28
11 11 12 13 13 15 14 15 18 18 16 17 17 19 21 19 17 18 18 15 15 14 15 16 18 15 19 19 16 17 16 17 17 17 16 18 19 20 22 23 23 24 28
8 8 9 10 11 12 13 14 15 14 14 17 14 16 18 17 14 16 17 14 14 14 14 14 12 16 17 17 17 14 15 15 16 13 13 13 15 15 16 17 19 20 20
6 7 9 12 10 10 14 13 14 13 14 14 14 14 15 12 13 14 15 16 16 12 11 11 12 16 14 14 13 13 14 13 10 9 8 9 10 10 12 14 15 17 19
7 8 10 10 11 11 12 10 12 11 12 10 10 11 11 11 11 12 13 14 14 11 10 13 14 12 11 8 9 9 7 7 6 3 3 4 5 9 10 11 12 13 15
7 6 7 8 7 9 8 6 9 10 9 7 8 8 8 8 8 10 11 12 14 11 12 9 8 6 5 4 1 1 -0 1 2 1 -0 -1 3 4 5 7 7 8 10
6 4 5 5 6 5 5 7 5 6 7 5 2 7 2 1 7 11 10 11 11 11 8 -0 -2 -2 -3 -3 -4 -4 -2 -3 -3 -2 -4 -4 -3 -0 1 3 4 5 7
3 3 2 2 4 3 1 4 3 5 6 7 8 7 8 9 10 11 11 12 12 10 -7 -9 -6 -6 -7 -7 -7 -8 -7 -7 -6 -5 -6 -6 -6 -4 -3 -1 1 2 4
2 1 1 0 -1 1 1 1 -2 1 3 4 4 6 7 8 8 9 10 10 9 2 -18 -16 -9 -9 -9 -9 -9 -10 -11 -9 -7 -8 -9 -8 -7 -6 -6 -4 -3 -1 0
-3 -3 -1 -1 -1 -1 -0 -2 -1 -3 -5 -4 -1 2 4 5 6 8 9 3 -14 -13 -19 -21 -16 -12 -12 -11 -11 -12 -12 -12 -12 -11 -11 -11 -10 -9 -8 -7 -6 -3 -1
-3 -2 -4 -3 -2 -3 -5 -3 -3 -6 -8 -11 -12 -5 -2 1 4 6 5 -17 -20 -15 -22 -21 -19 -14 -13 -13 -13 -14 -14 -15 -14 -14 -14 -13 -12 -10 -10 -9 -7 -4 0
-6 -7 -8 -9 -8 -9 -7 -9 -11 -13 -16 -16 -15 -13 -16 -16 -13 -20 -20 -22 -20 -16 -15 -20 -16 -17 -15 -15 -15 -15 -16 -17 -16 -16 -15 -14 -13 -12 -11 -10 -8 -6 1
-10 -12 -11 -17 -18 -19 -20 -19 -17 -20 -17 -16 -15 -10 2 -1 -15 -23 -18 -18 -18 -15 -14 -21 -16 -15 -15 -16 -16 -17 -18 -18 -18 -17 -16 -15 -15 -14 -12 -10 -8 -3 2
-19 -20 -21 -23 -21 -21 -22 -21 -22 -22 -18 -17 -14 -14 2 -11 -16 -16 -17 -18 -16 -17 -15 -16 -16 -16 -16 -16 -17 -18 -18 -19 -19 -18 -17 -16 -16 -15 -13 -11 -7 -1 0
-20 -21 -22 -23 -22 -21 -24 -24 -21 -20 -19 -19 -18 -16 -17 -16 -16 -16 -15 -15 -15 -16 -15 -19 -17 -17 -16 -17 -17 -18 -19 -20 -19 -17 -18 -17 -16 -16 -13 -10 -4 -1 -0
-22 -22 -21 -22 -24 -25 -23 -22 -22 -18 -18 -18 -17 -17 -16 -15 -16 -15 -15 -15 -15 -15 -15 -16 -17 -18 -18 -18 -18 -18 -19 -18 -18 -18 -16 -16 -17 -13 -10 -5 -3 -0 -1
-27 -24 -23 -21 -24 -22 -24 -23 -21 -21 -20 -17 -16 -16 -15 -16 -15 -15 -15 -15 -16 -16 -17 -17 -17 -19 -21 -21 -21 -21 -20 -16 -19 -18 -15 -12 -10 -6 -5 -3 -1 -1 -1
-23 -22 -20 -22 -21 -22 -22 -20 -18 -18 -17 -16 -16 -16 -16 -16 -15 -15 -15 -16 -17 -17 -18 -17 -18 -20 -21 -20 -20 -17 -15 -8 -9 -7 -4 -3 -4 -5 -4 -3 -3 -1 -1